{"data":{"norad_id":62153,"epoch":"2026-09-21T00:54:18.178560Z","epoch_age_seconds":135792,"freshness":"FRESH","line1":"1 62153U 24224Q   26264.03771040  .00010869  00000+0  40358-3 0  9999","line2":"2 62153  43.0018 135.0810 0001093 257.6259 102.4471 15.27606664102197","mean_motion":15.27606664,"eccentricity":0.0001093,"inclination_deg":43.0018,"raan_deg":135.081,"arg_perigee_deg":257.6259,"mean_anomaly_deg":102.4471,"bstar":0.00040358,"rev_number":10219,"period_min":94.265103310652,"perigee_km":482.21933667894,"apogee_km":483.71917450641,"semimajor_km":6861.1062555927,"source":"CELESTRAK","updated_at":"2026-09-22T09:00:49.532214Z"}}